Погода в Тамалакане

Россия / Республика Саха (Якутия)     63°30′52″N   120°50′11″E
темп.,
°C
ветер,
м/с
пор.,
м/с
влажн.,
%
обл.,
%
осадки,
мм/ч
давл.,
гПа
погр.,
м
20 января, чт
чт2000:00−21ю259895 0.1 1027130
03:00−23ю249998 0.2 102756
06:00−23ююз259997 0.1 102786
09:00−26ю2410028 0.1 102856
12:00−24ю269948 0.0 1028110
15:00−20ю2796100 0.0 1027138
18:00−20ю279696 0.0 1027132
21:00−17ююз389698 0.1 1027285
21 января, пт
пт2100:00−15юз2796100 0.3 1026295
03:00−16ююз269798 0.4 1027158
06:00−16ююз269785 0.1 1027163
09:00−16ююз2597100 0.1 1027110
12:00−14ююз2696100 0.1 1027246
15:00−13ююз2596100 0.3 1026315
18:00−14ююз2597100 0.3 1026173
21:00−14ююз269798 0.4 1026164
22 января, сб
сб2200:00−15ююз269894 0.1 1026109
03:00−15юз279781 0.2 1026178
06:00−16юз379699 0.1 1025258
09:00−16юз379684 0.3 1025256
12:00−15юз279680 0.1 1025342
15:00−15зюз269592 0.3 1025381
18:00−19юз2310087 0.1 102640
21:00−17зюз269790 0.1 1026175
23 января, вс
вс2300:00−22юз2510067 0.0 102759
03:00−24юз25997 0.0 102674
06:00−26юз26997 0.0 102674
09:00−26юз259933 0.0 102578
12:00−23зюз299869 0.0 1025215
15:00−20з279728 0.0 1025200
18:00−23з279964 0.0 1026109
21:00−23з2510073 0.0 102688
24 января, пн
пн2400:00−27з2110078 0.0 102719
03:00−24з13100100 0.0 102657
06:00−20зюз1399100 0.1 1024100
09:00−18юз1298100 0.5 1023125
12:00−17з1296100 0.6 1022176
15:00−16сз2396100 1.1 1021266
18:00−19ссз259992 0.2 1022115
21:00−24ссз2410094 0.2 102477